User: anonymous   Login
Location: Caltech
(34.1382°N, 118.1253°W)
Time: 19:29:38
(UTC-08:00)
Language:

UOSAT-12 - Orbit

View from above orbital plane
View from above orbital plane
View from above satellite
View from above satellite

Ground track
Ground track

The orbit data is extracted from the following two-line orbital elements,

1 25693U 99021A   15060.51252690  .00000815  00000-0  12369-3 0  9996
2 25693 064.5559 189.9257 0047414 254.3564 173.6471 14.80332512856008
Epoch (UTC): 01 March 2015 12:18:02
Eccentricity: 0.0047414
inclination: 64.5559°
perigee height: 595 km
apogee height: 661 km
right ascension of ascending node: 189.9257°
argument of perigee: 254.3564°
revolutions per day: 14.80332512
mean anomaly at epoch: 173.6471°
orbit number at epoch: 85600

The dashed part of the orbit path shows where the satellite is in the earth's shadow,  

DLR